Weather History for Boise, ID

Change the Weather History Date:

Tuesday, February 5, 2013

  Actual Average Record
Temperature  
Mean Temperature 33 °F 34 °F  
Max Temperature 36 °F 42 °F 62 °F (1963)
Min Temperature 30 °F 27 °F -15 °F (1989)
Degree Days  
Heating Degree Days 32 31  
Month to date heating degree days 163 156  
Since 1 July heating degree days 3440 3517  
Cooling Degree Days 0 0  
Month to date cooling degree days 0 0  
Year to date cooling degree days 0 0  
Moisture  
Dew Point 31 °F    
Average Humidity 91    
Maximum Humidity 100    
Minimum Humidity 82    
Precipitation  
Precipitation T in 0.03 in 0.45 in (1890)
Month to date precipitation T 0.17  
Year to date precipitation 1.21 1.41  
Snow  
Snow 0.00 in 0.20 in 2.10 in (1948)
Month to date snowfall T 0.7  
Since 1 July snowfall 11.8 15.5  
Snow Depth 0.00 in    
Sea Level Pressure  
Sea Level Pressure 30.02 in    
Wind  
Wind Speed 4 mph (WNW)    
Max Wind Speed 12 mph    
Max Gust Speed 14 mph    
Visibility 2 miles    
Events Fog , Rain    
T = Trace of Precipitation, MM = Missing Value Source: NWS Daily Summary

Daily Weather History Graph

Daily Weather History Graph

Search for Another Location

Airport:

Trip Planner

Search our weather history database for the weather conditions in past years. The results will help you decide how hot, cold, wet, or windy it might be!

Date:

Astronomy

Feb. 05, 2013 Rise Set
Actual Time 7:56 AM MST 6:02 PM MST
Civil Twilight 7:26 AM MST 6:32 PM MST
Nautical Twilight 6:52 AM MST 7:06 PM MST
Astronomical Twilight 6:18 AM MST 7:39 PM MST
Moon 3:46 AM MST (2/5) 1:20 PM MST (2/5)
Length of Visible Light 11h 06m
Length of Day
10h 06m
Waning Crescent, 26% of the Moon is Illuminated
Feb 5
Waning Crescent
Feb 10
New
Feb 17
First Quarter
Feb 25
Full
Mar 4
Last Quarter

Hourly Weather History & Observations

Time (MST) Temp. Windchill Dew Point Humidity Pressure Visibility Wind Dir Wind Speed Gust Speed Precip Events Conditions
12:24 AM 30.2 °F - 30.2 °F 100% 30.09 in 1.8 mi Calm Calm - N/A   Overcast
12:31 AM 30.2 °F - 30.2 °F 100% 30.08 in 2.0 mi Calm Calm - N/A   Overcast
12:53 AM 30.9 °F - 30.9 °F 100% 30.14 in 2.0 mi Calm Calm - N/A   Overcast
1:17 AM 30.2 °F - 30.2 °F 100% 30.06 in 3.0 mi Calm Calm - N/A   Overcast
1:53 AM 30.9 °F 27.5 °F 30.0 °F 96% 30.11 in 2.5 mi WSW 3.5 mph - N/A   Overcast
2:49 AM 30.2 °F - 30.2 °F 100% 30.06 in 3.0 mi Calm Calm - N/A   Overcast
2:53 AM 30.9 °F - 30.0 °F 96% 30.12 in 3.0 mi Calm Calm - N/A   Overcast
3:53 AM 30.9 °F - 30.0 °F 96% 30.09 in 3.0 mi Calm Calm - N/A   Overcast
4:17 AM 30.2 °F - 30.2 °F 100% 30.04 in 2.5 mi Calm Calm - N/A   Overcast
4:53 AM 30.9 °F 27.5 °F 30.0 °F 96% 30.08 in 2.5 mi South 3.5 mph - N/A   Overcast
5:27 AM 30.2 °F - 30.2 °F 100% 30.03 in 1.5 mi Calm Calm - N/A   Overcast
5:45 AM 30.2 °F 26.7 °F 30.2 °F 100% 30.02 in 0.8 mi SSE 3.5 mph - N/A   Overcast
5:53 AM 30.0 °F 26.5 °F 30.0 °F 100% 30.07 in 0.8 mi South 3.5 mph - N/A   Mist
6:18 AM 30.2 °F - 30.2 °F 100% 30.01 in 0.2 mi Calm Calm - N/A Fog Light Freezing Fog
6:53 AM 30.0 °F 26.5 °F 30.0 °F 100% 30.08 in 0.2 mi NW 3.5 mph - N/A Fog Light Freezing Fog
7:04 AM 30.2 °F 25.4 °F 30.2 °F 100% 30.02 in 0.5 mi WNW 4.6 mph - N/A Fog Light Freezing Fog
7:53 AM 30.9 °F 25.2 °F 30.9 °F 100% 30.09 in 0.5 mi NW 5.8 mph - N/A Fog Light Freezing Fog
8:15 AM 30.2 °F - 30.2 °F 100% 30.02 in 0.2 mi Calm Calm - N/A Fog Light Freezing Fog
8:53 AM 30.9 °F 27.5 °F 30.9 °F 100% 30.06 in 0.2 mi Variable 3.5 mph - N/A Fog Light Freezing Fog
9:45 AM 30.2 °F 24.3 °F 30.2 °F 100% 30.02 in 0.5 mi NW 5.8 mph - N/A Fog Light Freezing Fog
9:53 AM 30.9 °F - 30.0 °F 96% 30.07 in 0.2 mi Calm Calm - N/A Fog Light Freezing Fog
10:27 AM 30.2 °F - 30.2 °F 100% 29.99 in 0.8 mi Calm Calm - N/A   Mist
10:43 AM 30.2 °F 26.7 °F 30.2 °F 100% 29.99 in 1.0 mi South 3.5 mph - N/A   Overcast
10:53 AM 30.9 °F - 30.9 °F 100% 30.05 in 1.5 mi Calm Calm - N/A   Overcast
11:00 AM 30.2 °F - 30.2 °F 100% 29.99 in 0.8 mi Calm Calm - N/A   Overcast
11:10 AM 30.2 °F 26.7 °F 30.2 °F 100% 29.99 in 1.5 mi WSW 3.5 mph - N/A   Overcast
11:19 AM 30.2 °F - 30.2 °F 100% 30.00 in 2.5 mi Calm Calm - N/A   Overcast
11:53 AM 32.0 °F 26.4 °F 30.9 °F 96% 30.06 in 2.0 mi NW 5.8 mph - N/A   Overcast
12:00 PM 32.0 °F 26.4 °F 30.2 °F 93% 30.00 in 3.0 mi WNW 5.8 mph - N/A   Overcast
12:08 PM 33.8 °F 30.8 °F 30.2 °F 87% 30.00 in 3.0 mi NW 3.5 mph - N/A   Overcast
12:53 PM 33.1 °F 28.7 °F 30.9 °F 92% 30.01 in 3.0 mi North 4.6 mph - N/A   Overcast
1:53 PM 35.1 °F 30.1 °F 32.0 °F 89% 29.99 in 4.0 mi NNW 5.8 mph - N/A   Overcast
2:53 PM 35.1 °F 32.2 °F 32.0 °F 89% 29.97 in 4.0 mi NW 3.5 mph - N/A   Overcast
3:53 PM 36.0 °F 32.1 °F 32.0 °F 86% 29.97 in 5.0 mi West 4.6 mph - N/A   Scattered Clouds
4:53 PM 36.0 °F 32.1 °F 30.9 °F 82% 29.96 in 6.0 mi WSW 4.6 mph - N/A   Haze
5:53 PM 34.0 °F 29.8 °F 30.9 °F 89% 29.97 in 5.0 mi WNW 4.6 mph - N/A   Clear
6:07 PM 33.8 °F 27.7 °F 30.2 °F 87% 29.92 in 3.0 mi WNW 6.9 mph - N/A   Scattered Clouds
6:10 PM 33.8 °F 27.7 °F 30.2 °F 87% 29.92 in 2.5 mi WNW 6.9 mph - N/A   Mostly Cloudy
6:53 PM 33.1 °F - 30.9 °F 92% 29.98 in 3.0 mi Calm Calm - N/A   Overcast
7:53 PM 33.1 °F 26.9 °F 30.9 °F 92% 30.00 in 3.0 mi WNW 6.9 mph - N/A   Overcast
8:09 PM 32.0 °F 25.6 °F 30.2 °F 93% 29.95 in 2.5 mi WNW 6.9 mph - N/A   Overcast
8:35 PM 32.0 °F 25.6 °F 30.2 °F 93% 29.96 in 1.8 mi NW 6.9 mph - N/A   Overcast
8:53 PM 32.0 °F 24.8 °F 30.2 °F 93% 29.96 in 1.5 mi WNW 8.1 mph - N/A   Overcast
9:39 PM 32.0 °F 24.8 °F 30.2 °F 93% 29.99 in 2.0 mi NW 8.1 mph - N/A   Overcast
9:53 PM 30.9 °F 25.2 °F 30.9 °F 100% 30.05 in 1.5 mi NW 5.8 mph - N/A   Overcast
10:09 PM 32.0 °F 27.5 °F 30.2 °F 93% 30.00 in 2.0 mi North 4.6 mph - N/A   Overcast
10:22 PM 32.0 °F 23.0 °F 30.2 °F 93% 29.98 in 0.5 mi ENE 11.5 mph - N/A Fog Fog
10:32 PM 32.0 °F 23.6 °F 30.2 °F 93% 29.97 in 0.5 mi ENE 10.4 mph - 0.00 in Fog , Rain Light Freezing Rain
10:53 PM 32.0 °F 24.8 °F 32.0 °F 100% 30.04 in 0.2 mi West 8.1 mph - 0.00 in Fog , Rain Light Freezing Rain
11:10 PM 30.2 °F 24.3 °F 30.2 °F 100% 29.99 in 0.2 mi West 5.8 mph - 0.00 in Fog Light Freezing Fog
11:53 PM 30.9 °F 27.5 °F 30.9 °F 100% 30.06 in 0.2 mi WNW 3.5 mph - 0.00 in Fog Light Freezing Fog